Forest City, IA

4:58 PM CST on January 21, 2017 (GMT -0600)
Forest City

Weather History for KFXY - October, 2013

Change the Weather History Date:

Wednesday, October 23, 2013

  Actual Average Record
Temperature  
Mean Temperature 32 °F -  
Max Temperature 39 °F 59 °F 69 °F (2011)
Min Temperature 26 °F 37 °F 26 °F (2013)
Degree Days  
Heating Degree Days 32    
Moisture  
Dew Point 25 °F    
Average Humidity 71    
Maximum Humidity 87    
Minimum Humidity 52    
Precipitation  
Precipitation 0.00 in - - ()
Sea Level Pressure  
Sea Level Pressure 30.05 in    
Wind  
Wind Speed 7 mph (WNW)    
Max Wind Speed 15 mph    
Max Gust Speed 21 mph    
Visibility 10 miles    
Events Snow    
Averages and records for this station are not official NWS values.
T = Trace of Precipitation, MM = Missing Value Source: NWS Daily Summary

Daily Weather History Graph

Daily Weather History Graph

Search for Another Location

Airport or City:

Trip Planner

Search our weather history database for the weather conditions in past years. The results will help you decide how hot, cold, wet, or windy it might be!

Date:

Astronomy

Oct. 23, 2013 Rise Set
Actual Time 7:38 AM CDT 6:18 PM CDT
Civil Twilight 7:09 AM CDT 6:47 PM CDT
Nautical Twilight 6:35 AM CDT 7:20 PM CDT
Astronomical Twilight 6:03 AM CDT 7:53 PM CDT
Moon 9:46 PM CDT (10/23) 12:00 PM CDT (10/23)
Length of Visible Light 11h 38m
Length of Day
10h 40m
Waning Gibbous, 79% of the Moon is Illuminated
Oct 23
Waning Gibbous
Oct 26
Last Quarter
Nov 3
New
Nov 9
First Quarter
Nov 17
Full

Hourly Weather History & Observations

Time (CDT) Temp. Windchill Dew Point Humidity Pressure Visibility Wind Dir Wind Speed Gust Speed Precip Events Conditions
12:15 AM 35.6 °F 28.6 °F 24.8 °F 65% 30.04 in 10.0 mi NW 9.2 mph - N/A   Overcast
12:35 AM 35.6 °F 28.6 °F 24.8 °F 65% 30.03 in 10.0 mi WNW 9.2 mph - N/A   Overcast
12:55 AM 35.6 °F 29.2 °F 24.8 °F 65% 30.03 in 10.0 mi NW 8.1 mph - N/A   Overcast
1:15 AM 33.8 °F 27.0 °F 26.6 °F 75% 30.03 in 10.0 mi NW 8.1 mph - N/A   Overcast
1:35 AM 33.8 °F 27.7 °F 26.6 °F 75% 30.03 in 10.0 mi NW 6.9 mph - N/A   Overcast
1:55 AM 33.8 °F 27.7 °F 26.6 °F 75% 30.03 in 10.0 mi WNW 6.9 mph - N/A   Overcast
2:15 AM 32.0 °F 26.4 °F 26.6 °F 80% 30.03 in 10.0 mi NW 5.8 mph - N/A   Overcast
2:35 AM 32.0 °F 26.4 °F 26.6 °F 80% 30.03 in 10.0 mi NW 5.8 mph - N/A   Overcast
2:55 AM 32.0 °F 25.6 °F 26.6 °F 80% 30.03 in 10.0 mi NW 6.9 mph - N/A   Overcast
3:15 AM 33.8 °F 27.0 °F 26.6 °F 75% 30.03 in 10.0 mi WNW 8.1 mph - N/A   Overcast
3:35 AM 33.8 °F 27.7 °F 26.6 °F 75% 30.02 in 10.0 mi WNW 6.9 mph - N/A   Overcast
3:55 AM 33.8 °F 28.6 °F 26.6 °F 75% 30.02 in 10.0 mi NW 5.8 mph - N/A   Overcast
4:15 AM 32.0 °F 26.4 °F 26.6 °F 80% 30.02 in 10.0 mi WNW 5.8 mph - N/A   Overcast
4:35 AM 32.0 °F 26.4 °F 26.6 °F 80% 30.02 in 10.0 mi West 5.8 mph - N/A   Overcast
4:55 AM 32.0 °F 26.4 °F 26.6 °F 80% 30.02 in 10.0 mi WNW 5.8 mph - N/A   Overcast
5:15 AM 30.2 °F 24.3 °F 24.8 °F 80% 30.02 in 10.0 mi West 5.8 mph - N/A   Scattered Clouds
5:35 AM 28.4 °F 23.3 °F 23.0 °F 80% 30.02 in 10.0 mi West 4.6 mph - N/A   Clear
5:55 AM 28.4 °F 24.6 °F 23.0 °F 80% 30.03 in 10.0 mi West 3.5 mph - N/A   Clear
6:15 AM 26.6 °F 22.6 °F 23.0 °F 86% 30.03 in 10.0 mi West 3.5 mph - N/A   Clear
6:35 AM 28.4 °F - 23.0 °F 80% 30.04 in 10.0 mi Calm Calm - N/A   Clear
6:55 AM 26.6 °F 22.6 °F 23.0 °F 86% 30.04 in 10.0 mi West 3.5 mph - N/A   Scattered Clouds
7:15 AM 28.4 °F 23.3 °F 23.0 °F 80% 30.04 in 10.0 mi West 4.6 mph - N/A   Mostly Cloudy
7:35 AM 28.4 °F - 24.8 °F 86% 30.04 in 10.0 mi Calm Calm - N/A   Overcast
7:55 AM 30.2 °F - 26.6 °F 86% 30.04 in 10.0 mi Calm Calm - N/A   Overcast
8:15 AM 30.2 °F - 26.6 °F 86% 30.04 in 10.0 mi Calm Calm - N/A   Overcast
8:35 AM 32.0 °F - 28.4 °F 87% 30.04 in 10.0 mi Calm Calm - N/A   Overcast
8:55 AM 32.0 °F 28.7 °F 28.4 °F 87% 30.04 in 10.0 mi West 3.5 mph - N/A   Mostly Cloudy
9:15 AM 33.8 °F 29.6 °F 28.4 °F 81% 30.04 in 10.0 mi West 4.6 mph - N/A   Scattered Clouds
9:35 AM 35.6 °F 29.9 °F 28.4 °F 75% 30.04 in 10.0 mi West 6.9 mph - N/A   Mostly Cloudy
9:55 AM 35.6 °F 30.7 °F 28.4 °F 75% 30.04 in 10.0 mi WNW 5.8 mph - N/A   Overcast
10:15 AM 35.6 °F 28.6 °F 28.4 °F 75% 30.05 in 10.0 mi West 9.2 mph - N/A   Overcast
10:35 AM 35.6 °F 29.2 °F 28.4 °F 75% 30.05 in 10.0 mi West 8.1 mph - N/A   Overcast
10:55 AM 35.6 °F 29.2 °F 28.4 °F 75% 30.05 in 10.0 mi WNW 8.1 mph - N/A   Overcast
11:15 AM 35.6 °F 29.9 °F 28.4 °F 75% 30.05 in 10.0 mi West 6.9 mph - N/A   Overcast
11:35 AM 35.6 °F 30.7 °F 28.4 °F 75% 30.05 in 10.0 mi WNW 5.8 mph - N/A   Overcast
11:55 AM 35.6 °F 29.9 °F 28.4 °F 75% 30.05 in 5.0 mi NW 6.9 mph - N/A Snow Light Snow
12:15 PM 35.6 °F 29.2 °F 28.4 °F 75% 30.06 in 5.0 mi WNW 8.1 mph - N/A Snow Light Snow
12:35 PM 35.6 °F 29.2 °F 32.0 °F 87% 30.05 in 3.0 mi NW 8.1 mph - N/A Snow Light Snow
12:55 PM 35.6 °F 29.9 °F 32.0 °F 87% 30.05 in 4.0 mi NW 6.9 mph - N/A Snow Light Snow
1:15 PM 35.6 °F 29.9 °F 32.0 °F 87% 30.05 in 4.0 mi NW 6.9 mph - N/A Snow Light Snow
1:35 PM 35.6 °F 29.9 °F 32.0 °F 87% 30.04 in 7.0 mi West 6.9 mph - N/A   Overcast
1:55 PM 37.4 °F 30.8 °F 32.0 °F 81% 30.03 in 10.0 mi WNW 9.2 mph - N/A   Overcast
2:15 PM 37.4 °F 30.8 °F 30.2 °F 75% 30.02 in 10.0 mi WNW 9.2 mph - N/A   Overcast
2:35 PM 37.4 °F 30.3 °F 30.2 °F 75% 30.02 in 10.0 mi WNW 10.4 mph - N/A   Overcast
2:55 PM 37.4 °F 29.8 °F 30.2 °F 75% 30.02 in 10.0 mi WNW 11.5 mph - N/A   Overcast
3:15 PM 37.4 °F 29.3 °F 30.2 °F 75% 30.02 in 10.0 mi NW 12.7 mph - N/A   Overcast
3:35 PM 39.2 °F 32.0 °F 26.6 °F 61% 30.03 in 10.0 mi NW 11.5 mph - N/A   Overcast
3:55 PM 37.4 °F 28.9 °F 26.6 °F 65% 30.04 in 10.0 mi NW 13.8 mph 18.4 mph N/A   Overcast
4:15 PM 37.4 °F 28.5 °F 24.8 °F 60% 30.04 in 10.0 mi NNW 15.0 mph 20.7 mph N/A   Overcast
4:35 PM 37.4 °F 28.9 °F 23.0 °F 56% 30.05 in 10.0 mi NW 13.8 mph 20.7 mph N/A   Overcast
4:55 PM 37.4 °F 28.5 °F 23.0 °F 56% 30.05 in 10.0 mi NW 15.0 mph - N/A   Overcast
5:15 PM 37.4 °F 29.3 °F 23.0 °F 56% 30.05 in 10.0 mi NNW 12.7 mph 20.7 mph N/A   Overcast
5:35 PM 35.6 °F 26.6 °F 23.0 °F 60% 30.06 in 10.0 mi NNW 13.8 mph 17.3 mph N/A   Overcast
5:55 PM 35.6 °F 28.0 °F 21.2 °F 56% 30.06 in 10.0 mi NW 10.4 mph 18.4 mph N/A   Overcast
6:15 PM 35.6 °F 28.6 °F 21.2 °F 56% 30.06 in 10.0 mi NW 9.2 mph 17.3 mph N/A   Overcast
6:35 PM 35.6 °F 27.5 °F 23.0 °F 60% 30.07 in 10.0 mi NNW 11.5 mph 16.1 mph N/A   Overcast
6:55 PM 35.6 °F 28.0 °F 23.0 °F 60% 30.07 in 10.0 mi NNW 10.4 mph - N/A   Overcast
7:15 PM 35.6 °F 28.6 °F 21.2 °F 56% 30.08 in 10.0 mi NNW 9.2 mph - N/A   Overcast
7:35 PM 35.6 °F 28.6 °F 21.2 °F 56% 30.08 in 10.0 mi NNW 9.2 mph - N/A   Overcast
7:55 PM 35.6 °F 29.2 °F 21.2 °F 56% 30.08 in 10.0 mi NW 8.1 mph - N/A   Overcast
8:15 PM 35.6 °F 29.9 °F 21.2 °F 56% 30.09 in 10.0 mi WNW 6.9 mph - N/A   Overcast
8:35 PM 35.6 °F 29.2 °F 21.2 °F 56% 30.09 in 10.0 mi WNW 8.1 mph - N/A   Overcast
8:55 PM 35.6 °F 29.9 °F 21.2 °F 56% 30.09 in 10.0 mi NW 6.9 mph - N/A   Overcast
9:15 PM 35.6 °F 28.0 °F 21.2 °F 56% 30.09 in 10.0 mi NW 10.4 mph - N/A   Overcast
9:35 PM 35.6 °F 28.0 °F 19.4 °F 52% 30.09 in 10.0 mi NW 10.4 mph - N/A   Overcast
9:55 PM 35.6 °F 28.6 °F 19.4 °F 52% 30.09 in 10.0 mi NW 9.2 mph - N/A   Overcast
10:15 PM 35.6 °F 29.9 °F 19.4 °F 52% 30.09 in 10.0 mi NW 6.9 mph - N/A   Overcast
10:35 PM 33.8 °F 27.7 °F 21.2 °F 60% 30.09 in 10.0 mi WNW 6.9 mph - N/A   Overcast
10:55 PM 33.8 °F 27.7 °F 21.2 °F 60% 30.09 in 10.0 mi WNW 6.9 mph - N/A   Overcast
11:15 PM 33.8 °F 26.4 °F 23.0 °F 65% 30.10 in 10.0 mi WNW 9.2 mph - N/A   Overcast
11:35 PM 33.8 °F 26.4 °F 23.0 °F 65% 30.09 in 10.0 mi NW 9.2 mph - N/A   Overcast
11:55 PM 33.8 °F 27.7 °F 23.0 °F 65% 30.10 in 10.0 mi NW 6.9 mph - N/A   Overcast